This demonstration page uses our WeatherBlox Daily Observations layout. Learn more.

Left ArrowRight Arrow

44.89941, -97.11507

Hourly Observations for August 16, 2022

Temp ( °F °C ) Dew Point ( °F °C ) Humidity (%) Winds ( mph kmh ) Pressure ( in mb ) Visibility ( mi km ) Precip ( " mm )
12:53 am 00:53 Clear 63 17.2 61 16.1 93 93 S 7 11 30.08 1019 10 16 0.00 0.00
1:53 am 01:53 Clear 61 16.1 60 15.6 97 97 SSW 6 9 30.08 1019 10 16 0.00 0.00
2:53 am 02:53 Mostly Clear 61 16.1 61 16.1 100 100 WNW 3 6 30.11 1020 10 16 0.00 0.00
3:06 am 03:06 Mostly Cloudy 60 15.6 60 15.6 100 100 SW 3 6 30.10 1019 10 16 0.00 0.00
3:49 am 03:49 Partly Cloudy with Mist and Fog 61 16 61 16 100 100 Calm 30.10 1019 3 5 0.00 0.00
3:53 am 03:53 Mostly Clear with Mist and Fog 60 15.6 60 15.6 100 100 WSW 3 6 30.11 1020 3 4 0.00 0.00
4:01 am 04:01 Clear 60 15.6 60 15.6 100 100 SW 3 6 30.10 1019 7 11 0.00 0.00
4:53 am 04:53 Clear 59 15 59 15 100 100 WSW 3 6 30.11 1020 7 11 0.00 0.00
5:21 am 05:21 Clear with Mist and Fog 59 15 59 15 100 100 Calm 30.11 1020 2 3 0.00 0.00
5:29 am 05:29 Clear with Mist and Fog 58 14.4 58 14.4 100 100 Calm 30.10 1019 2 3 0.00 0.00
5:35 am 05:35 Mostly Clear with Fog 59 15 58 14.4 96 96 Calm 30.10 1019 1 1 0.00 0.00
5:44 am 05:44 Mostly Clear with Fog 57 13.9 57 13.9 100 100 Calm 30.11 1020 0 0 0.00 0.00
5:53 am 05:53 Mostly Clear with Mist and Fog 58 14.4 58 14.4 100 100 Calm 30.12 1020 3 5 0.00 0.00
6:06 am 06:06 Clear with Mist and Fog 59 15 59 15 100 100 Calm 30.11 1020 2 2 0.00 0.00
6:08 am 06:08 Clear with Mist and Fog 59 15 59 15 100 100 Calm 30.11 1020 1 1 0.00 0.00
6:24 am 06:24 Mostly Clear with Fog 59 15 59 15 100 100 Calm 30.11 1020 0 0 0.00 0.00
6:37 am 06:37 Partly Cloudy with Mist and Fog 59 15 59 15 100 100 Calm 30.11 1020 1 2 0.00 0.00
6:45 am 06:45 Mostly Cloudy with Mist and Fog 58 14.4 58 14.4 100 100 SSE 3 6 30.11 1020 2 3 0.00 0.00
6:53 am 06:53 Mostly Cloudy with Mist and Fog 58 14.4 58 14.4 100 100 SSE 3 6 30.12 1020 5 8 0.00 0.00
7:41 am 07:41 Cloudy with Fog 60 15.6 60 15.6 100 100 Calm 30.12 1020 0 0 0.00 0.00
7:53 am 07:53 Cloudy with Fog 60 15.6 60 15.6 100 100 S 3 6 30.14 1021 0 0 0.00 0.00
8:31 am 08:31 Mostly Cloudy with Mist and Fog 62 16.7 62 16.7 100 100 Calm 30.13 1020 1 2 0.00 0.00
8:33 am 08:33 Mostly Cloudy with Mist and Fog 62 16.7 62 16.7 100 100 SW 3 6 30.13 1020 5 8 0.00 0.00
8:46 am 08:46 Mostly Sunny 63 17.2 62 16.7 97 97 SW 3 6 30.12 1020 10 16 0.00 0.00
8:53 am 08:53 Mostly Sunny 65 18.3 62 16.7 90 90 S 7 11 30.14 1021 10 16 0.00 0.00
9:53 am 09:53 Sunny 67 19.4 62 16.7 84 84 S 9 15 30.14 1021 10 16 0.00 0.00
10:53 am 10:53 Sunny 71 21.7 61 16.1 70 70 S 12 19 30.14 1021 10 16 0.00 0.00
11:53 am 11:53 Sunny 73 22.8 62 16.7 68 68 S 9 15 30.14 1021 10 16 0.00 0.00
12:53 pm 12:53 Mostly Cloudy 75 23.9 62 16.7 64 64 SW 10 17 30.13 1020 10 16 0.00 0.00
1:53 pm 13:53 Mostly Cloudy 76 24.4 62 16.7 62 62 S 7 11 30.12 1020 10 16 0.00 0.00
2:53 pm 14:53 Mostly Sunny 76 24.4 62 16.7 62 62 SSW 8 13 30.11 1020 10 16 0.00 0.00
3:53 pm 15:53 Partly Cloudy 78 25.6 61 16.1 56 56 SSW 8 13 30.11 1020 10 16 0.00 0.00
4:53 pm 16:53 Mostly Sunny 78 25.6 61 16.1 56 56 SW 8 13 30.11 1020 10 16 0.00 0.00
5:53 pm 17:53 Sunny 78 25.6 61 16.1 56 56 SSW 9 15 30.09 1019 10 16 0.00 0.00
6:53 pm 18:53 Sunny 77 25 61 16.1 58 58 S 7 11 30.10 1019 10 16 0.00 0.00
7:53 pm 19:53 Sunny 73 22.8 62 16.7 68 68 SSW 7 11 30.10 1019 10 16 0.00 0.00
8:53 pm 20:53 Clear 69 20.6 62 16.7 78 78 SSW 7 11 30.11 1020 10 16 0.00 0.00
9:53 pm 21:53 Clear 67 19.4 62 16.7 84 84 SSW 7 11 30.12 1020 10 16 0.00 0.00
10:53 pm 22:53 Clear 67 19.4 62 16.7 84 84 SSW 7 11 30.11 1020 10 16 0.00 0.00
11:53 pm 23:53 Clear 65 18.3 61 16.1 87 87 SSW 5 7 30.11 1020 10 16 0.00 0.00

Powered by AerisWeather